Location: Possagno
(45.8500°N, 11.8667°E)
Time: 21:05:31
(UTC+00:00)

Resurs 1-4 Rocket - Pass Details

Date: 01 October 2020
Orbit: 800 x 813 km, 98.6° (Epoch: 27 October)

Event Time Altitude Azimuth Distance (km) Brightness Sun altitude
Rises 02:14:46 0° 2° (N) 3,331 5.7 -30.4°
Reaches altitude 10° 02:17:34 10° 348° (NNW) 2,398 4.7 -29.9°
Enters shadow 02:18:58 16° 335° (NNW) 2,029 4.2 -29.7°
